[[{"header":{"parameterUnit":"m.s-1","parameterCategory":1,"la1":30.2991,"la2":30.254,"lo1":-89.0895,"lo2":-89.0444,"dy":0.0017,"dx":0.0017,"nx":28,"ny":28,"refTime":"2023-06-27T21:00:00:Z","depth":0,"parameterNumber":2,"parameterNumberName":"U-component_of_WINDS"},"data":[0,0,0,0,0,0,0,0,0,0,0,0,0,0,0,0,0,0,0,0,0,0,0,0,0,0,0,0,0,0,0,0,0,0,0,0,0,0,0,0,0,0,0,0,0,0,0,0,0,0,0,0,0,0,0,0,0,0,1.1613,1.1615,0,1.1754,1.1756,1.1757,1.1795,1.1794,1.1793,1.1792,1.1939,1.1943,1.1948,0,0,0,0,0,0,0,0,0,0,0,0,0,1.138,1.1384,1.1613,1.1615,1.1617,1.1754,1.1756,1.1758,1.1795,1.1794,1.1793,1.1792,1.1937,1.1943,1.1948,0,0,0,0,0,0,0,0,0,0,0,0,0,1.1497,1.1385,1.1613,1.1652,1.1656,1.1753,1.1756,1.1758,1.1795,1.1794,1.1792,1.1791,1.1935,1.1942,1.1949,1.2018,0,0,1.1971,1.1974,0,0,0,0,0,0,0,0,1.149,1.1506,1.1644,1.1649,1.1655,1.1755,1.1727,1.1845,1.1795,1.1742,1.1792,1.1791,1.1879,1.1891,1.192,1.2025,1.2031,1.1971,1.1976,1.1979,1.1981,0,0,0,0,0,0,0,1.1482,1.15,1.1669,1.1646,1.1653,1.1663,1.1678,1.175,1.1816,1.1747,1.175,1.1766,1.1882,1.1913,1.1924,1.2033,1.1971,1.1977,1.1982,1.1984,1.2205,1.2206,0,0,0,0,0,0,1.1467,1.1493,1.1664,1.1673,1.1568,1.1668,1.1685,1.1724,1.1815,1.1828,1.1767,1.1767,1.1902,1.1915,1.1929,1.2016,1.1979,1.1985,1.1989,1.2203,1.2205,1.2207,0,0,0,0,0,0,1.1462,1.1482,1.1659,1.1584,1.1607,1.1674,1.1717,1.1728,1.1759,1.1831,1.1843,1.1786,1.1901,1.1919,1.1996,1.2022,1.1988,1.1995,1.2201,1.2204,1.2206,1.2191,0,0,0,0,0,0,1.1455,1.148,1.1506,1.1584,1.1611,1.1722,1.1719,1.1732,1.1771,1.1773,1.1852,1.1864,1.1901,1.1985,1.2003,1.2031,1.2,1.2199,1.2202,1.2205,1.219,1.2193,1.2196,0,0,0,0,0,1.1447,1.1496,1.1507,1.1527,1.1644,1.1723,1.1739,1.178,1.1773,1.18,1.1846,1.1862,1.2016,1.1993,1.2013,1.2044,1.2197,1.2201,1.2205,1.2188,1.2192,1.2195,0,0,0,0,0,0,1.1419,1.1507,1.152,1.1596,1.1652,1.1729,1.1765,1.1783,1.1842,1.1841,1.1891,1.1909,1.1983,1.2021,1.1993,1.2116,1.2107,1.2115,1.2088,1.2092,1.2095,1.2084,1.2006,0,0,0,0,0,1.1422,1.1477,1.1552,1.1612,1.1639,1.1697,1.1733,1.176,1.1821,1.1845,1.1897,1.1955,1.2018,1.2057,1.2118,1.2196,1.2215,1.2227,1.223,1.2232,1.2238,1.2284,1.2291,1.2219,1.2219,1.2219,0,0,1.1428,1.1483,1.1515,1.1608,1.1654,1.1712,1.1717,1.1777,1.1821,1.1854,1.193,1.197,1.2039,1.2117,1.2154,1.2152,1.2263,1.2237,1.2238,1.2243,1.2288,1.2295,1.2301,1.2221,1.2221,1.222,0,0,1.1468,1.1515,1.1571,1.1618,1.1689,1.1727,1.1741,1.1816,1.1844,1.1921,1.1947,1.2001,1.2107,1.2155,1.2194,1.2256,1.2273,1.2275,1.2289,1.2333,1.2339,1.2344,1.2367,1.2374,1.228,1.228,1.228,0,1.1467,1.1554,1.1597,1.1657,1.1698,1.1731,1.1788,1.1832,1.1919,1.1947,1.1943,1.2078,1.2126,1.2217,1.2232,1.2262,1.228,1.2265,1.2334,1.234,1.2346,1.2368,1.2376,1.228,1.228,1.228,1.228,0,1.1549,1.161,1.1647,1.173,1.1775,1.1833,1.1887,1.1928,1.1952,1.1991,1.207,1.213,1.2205,1.2228,1.2252,1.2323,1.2319,1.2324,1.2316,1.2352,1.2373,1.2382,1.228,1.228,1.228,1.228,0,0,1.1574,1.1682,1.1694,1.1733,1.1815,1.1863,1.1924,1.1997,1.2031,1.2091,1.2144,1.2234,1.224,1.2283,1.2314,1.2352,1.2398,1.2353,1.2355,1.2359,1.2481,1.2476,1.2485,1.2411,1.2412,1.2414,1.2475,0,1.1624,1.1733,1.1775,1.1864,1.1922,1.1955,1.2009,1.2065,1.2105,1.216,1.2204,1.2267,1.2269,1.2296,1.2336,1.2384,1.2423,1.238,1.2461,1.2463,1.2441,1.2496,1.2491,1.2545,1.2484,1.2485,1.2486,0,1.1697,1.1757,1.1852,1.1928,1.1954,1.2001,1.2072,1.2124,1.219,1.2216,1.2266,1.2295,1.2362,1.235,1.2444,1.2414,1.245,1.2479,1.2482,1.249,1.2476,1.2505,1.2563,1.2571,1.25,1.2499,1.2498,0,1.1705,1.181,1.1881,1.1914,1.2004,1.2037,1.2077,1.2141,1.2183,1.2245,1.2273,1.2343,1.2381,1.2435,1.2482,1.247,1.2572,1.2564,1.2596,1.2595,1.2615,1.2613,1.2679,1.2639,1.2639,1.2639,1.2639,0,1.1756,1.1813,1.1886,1.1929,1.1995,1.2044,1.2108,1.215,1.2208,1.2261,1.2295,1.2344,1.2404,1.2462,1.25,1.2572,1.2589,1.2613,1.2622,1.2609,1.2606,1.2633,1.263,1.2641,1.2641,1.264,1.264,0,1.1775,1.1827,1.1906,1.1986,1.2008,1.2053,1.2122,1.2166,1.2208,1.2275,1.2294,1.236,1.243,1.2483,1.2574,1.2599,1.2676,1.2686,1.2653,1.2658,1.2686,1.2683,1.2771,1.2786,1.2736,1.2737,1.2737,0,1.1804,1.1848,1.1934,1.1972,1.2011,1.2072,1.2115,1.2166,1.2209,1.2289,1.2324,1.2396,1.2457,1.2567,1.2624,1.2694,1.2706,1.2732,1.2717,1.2703,1.2706,1.2703,1.2708,1.2734,1.2734,1.2734,1.2734,0,1.1849,1.1873,1.1933,1.2003,1.2053,1.211,1.2169,1.2198,1.226,1.2308,1.2379,1.2426,1.252,1.2591,1.2668,1.271,1.2733,1.2739,1.275,1.2737,1.2716,1.2728,1.2658,1.2737,1.2736,1.2736,1.2736,1.2736,1.1874,1.1916,1.1983,1.2049,1.2099,1.2153,1.2198,1.2247,1.2307,1.2386,1.2414,1.2488,1.2556,1.2661,1.2704,1.2764,1.2764,1.278,1.2784,1.2787,1.2786,1.2708,1.2778,1.2778,1.2778,1.2778,1.2778,0,1.1921,1.1966,1.2027,1.2108,1.216,1.2178,1.2244,1.2287,1.2352,1.2412,1.2472,1.2555,1.2625,1.2689,1.2762,1.2798,1.2811,1.2816,1.2813,1.2823,1.2781,1.2764,1.2804,1.2804,1.2804,1.2804,1.2804,1.2804,1.1951,1.2023,1.2055,1.2153,1.2198,1.2271,1.2307,1.2358,1.2407,1.2498,1.2557,1.2598,1.266,1.2739,1.2805,1.2822,1.2848,1.285,1.2869,1.2829,1.2826,1.2822,1.2806,1.2855,1.2855,1.2906,1.2906,1.2907]},{"header":{"parameterUnit":"m.s-1","parameterCategory":1,"la1":30.2991,"la2":30.254,"lo1":-89.0895,"lo2":-89.0444,"dy":0.0017,"dx":0.0017,"nx":28,"ny":28,"refTime":"2023-06-27T21:00:00:Z","depth":0,"parameterNumber":3,"parameterNumberName":"V-component_of_WINDS"},"data":[0,0,0,0,0,0,0,0,0,0,0,0,0,0,0,0,0,0,0,0,0,0,0,0,0,0,0,0,0,0,0,0,0,0,0,0,0,0,0,0,0,0,0,0,0,0,0,0,0,0,0,0,0,0,0,0,0,0,2.8531,2.8531,0,2.8562,2.8562,2.8562,2.8541,2.854,2.8539,2.8538,2.8569,2.857,2.8572,0,0,0,0,0,0,0,0,0,0,0,0,0,2.8451,2.8453,2.8531,2.8531,2.8532,2.8562,2.8562,2.8562,2.8541,2.854,2.8539,2.8538,2.8568,2.857,2.8572,0,0,0,0,0,0,0,0,0,0,0,0,0,2.8484,2.8453,2.8531,2.8525,2.8524,2.8562,2.8562,2.8563,2.8541,2.854,2.8539,2.8537,2.8567,2.857,2.8572,2.8617,0,0,2.858,2.8581,0,0,0,0,0,0,0,0,2.8483,2.8487,2.8525,2.8525,2.8525,2.8546,2.8545,2.8581,2.8542,2.8535,2.8538,2.8537,2.8562,2.8565,2.8574,2.8618,2.8619,2.858,2.8582,2.8583,2.8584,0,0,0,0,0,0,0,2.848,2.8486,2.8543,2.8526,2.8526,2.852,2.8523,2.8552,2.8556,2.8535,2.8534,2.8538,2.8562,2.8571,2.8574,2.862,2.858,2.8582,2.8584,2.8585,2.87,2.8701,0,0,0,0,0,0,2.8479,2.8484,2.8542,2.8544,2.85,2.8522,2.8526,2.8541,2.8556,2.8557,2.8539,2.8537,2.8568,2.8571,2.8575,2.8627,2.8583,2.8585,2.8587,2.8698,2.87,2.8702,0,0,0,0,0,0,2.8477,2.8484,2.8541,2.8514,2.852,2.8525,2.8542,2.8542,2.8552,2.8559,2.8559,2.8548,2.8567,2.8572,2.8606,2.8627,2.8586,2.8589,2.8696,2.8699,2.8701,2.8731,0,0,0,0,0,0,2.8475,2.8484,2.8501,2.8514,2.8522,2.8572,2.8544,2.8544,2.8556,2.8554,2.8567,2.8568,2.8566,2.8602,2.8609,2.863,2.8591,2.8694,2.8697,2.87,2.8728,2.8734,2.8739,0,0,0,0,0,2.8472,2.8509,2.8502,2.8509,2.8544,2.8573,2.8577,2.8575,2.8558,2.8575,2.8579,2.8568,2.8624,2.8606,2.8613,2.8636,2.8693,2.8696,2.87,2.8725,2.8733,2.8739,0,0,0,0,0,0,2.8498,2.851,2.8503,2.8545,2.8558,2.857,2.8591,2.8583,2.86,2.8597,2.8592,2.8595,2.8631,2.8637,2.8616,2.8678,2.8656,2.8661,2.8673,2.868,2.8685,2.8683,2.8593,0,0,0,0,0,2.8509,2.8532,2.8541,2.8577,2.8584,2.8587,2.8599,2.8596,2.8609,2.8614,2.8621,2.8633,2.8654,2.8667,2.8687,2.8729,2.873,2.8748,2.8753,2.8758,2.8762,2.8782,2.8789,2.8713,2.8713,2.8713,0,0,2.8531,2.8541,2.8556,2.8583,2.8592,2.8615,2.8591,2.8617,2.8634,2.8618,2.865,2.8656,2.8669,2.8707,2.8724,2.8713,2.8783,2.8762,2.8765,2.8767,2.8786,2.8794,2.88,2.8715,2.8715,2.8714,0,0,2.8583,2.8594,2.8624,2.8634,2.8648,2.8649,2.8657,2.8669,2.8672,2.8704,2.8692,2.8712,2.8747,2.8757,2.8767,2.882,2.881,2.8827,2.8855,2.8875,2.8881,2.8887,2.8904,2.8911,2.8831,2.8831,2.8831,0,2.8609,2.8644,2.864,2.8666,2.8678,2.8665,2.8694,2.8704,2.8724,2.8732,2.872,2.8763,2.8771,2.881,2.8823,2.8832,2.8839,2.8825,2.8881,2.8886,2.8891,2.8908,2.8915,2.8833,2.8833,2.8833,2.8832,0,2.8673,2.8698,2.872,2.874,2.8754,2.8782,2.8781,2.8796,2.8791,2.8793,2.8825,2.8835,2.8855,2.8864,2.886,2.8902,2.8894,2.8882,2.8859,2.89,2.8916,2.8922,2.8836,2.8835,2.8834,2.8834,0,0,2.8743,2.8759,2.8768,2.8775,2.879,2.8808,2.8835,2.8854,2.8866,2.888,2.8902,2.8931,2.8919,2.893,2.8927,2.8944,2.8984,2.8929,2.8929,2.8938,2.9029,2.9038,2.9046,2.8978,2.8979,2.898,2.9028,0,2.8794,2.8841,2.8838,2.8881,2.8903,2.8889,2.8912,2.8923,2.8926,2.8943,2.8946,2.8966,2.8949,2.8956,2.8973,2.8976,2.9002,2.8972,2.8996,2.8997,2.8992,2.9054,2.9064,2.9108,2.9034,2.9035,2.9036,0,2.8861,2.8877,2.8922,2.8932,2.8941,2.8961,2.8978,2.8996,2.9007,2.9007,2.9019,2.9012,2.9037,2.9015,2.9049,2.9029,2.9038,2.9041,2.9042,2.9044,2.9018,2.9055,2.9123,2.9129,2.9045,2.9045,2.9044,0,2.8905,2.8938,2.8969,2.8976,2.8989,2.9003,2.9009,2.9019,2.903,2.9045,2.9052,2.907,2.9079,2.9092,2.9089,2.9073,2.9123,2.9101,2.9123,2.9123,2.9134,2.9133,2.9202,2.9142,2.9142,2.9142,2.9142,0,2.8962,2.899,2.8988,2.9007,2.9038,2.9033,2.9063,2.9067,2.9076,2.9095,2.9085,2.9102,2.9098,2.9115,2.9114,2.9141,2.9146,2.9146,2.9145,2.9146,2.9146,2.9151,2.9148,2.9144,2.9143,2.9143,2.9143,0,2.9016,2.9016,2.9049,2.9058,2.9061,2.9082,2.909,2.9107,2.9108,2.9132,2.9137,2.9139,2.9158,2.9157,2.9179,2.9178,2.9211,2.9207,2.9207,2.9206,2.9228,2.9225,2.9302,2.9311,2.9246,2.9247,2.9248,0,2.9052,2.9073,2.9084,2.9095,2.9102,2.9121,2.9133,2.9129,2.9141,2.9155,2.917,2.9189,2.9203,2.9235,2.9237,2.9254,2.9249,2.9275,2.9252,2.9252,2.9248,2.9246,2.9248,2.9279,2.928,2.9281,2.9281,0,2.9115,2.9114,2.9131,2.9147,2.9161,2.9174,2.9185,2.9196,2.9193,2.9207,2.9226,2.9238,2.926,2.9278,2.9293,2.9298,2.9289,2.9289,2.9294,2.9295,2.9294,2.9294,2.9219,2.9287,2.9286,2.9286,2.9285,2.9285,2.916,2.9177,2.9187,2.9206,2.9214,2.9225,2.9241,2.9244,2.926,2.9278,2.9275,2.9296,2.9306,2.9325,2.9332,2.9348,2.9339,2.9348,2.935,2.9352,2.9353,2.9292,2.9351,2.9351,2.9351,2.9351,2.9351,0,2.9221,2.9227,2.9244,2.926,2.9274,2.9265,2.9277,2.9289,2.9308,2.9318,2.9332,2.9354,2.9371,2.9375,2.9391,2.9403,2.9399,2.9407,2.9406,2.9407,2.9362,2.9354,2.941,2.941,2.941,2.941,2.941,2.941,2.9255,2.9283,2.9283,2.9314,2.9319,2.9341,2.9348,2.9357,2.9365,2.939,2.9404,2.9406,2.9413,2.9429,2.9444,2.9444,2.945,2.946,2.9459,2.9416,2.941,2.9405,2.9398,2.9462,2.9462,2.9502,2.9503,2.9503]}]]